Visibility
15.0 15.0 15.0 15.0 15.0 7.2 4.1 9.3 15.0 14.9 8.3 0.1 0.3 1.5 15.0 15.0 15.0 15.0 15.0 15.0 15.0 15.0 15.0 15.0 15.0 15.0 15.0 15.0 15.0 15.0 15.0 0.0 1.1 14.2 15.0 15.0 15.0 15.0 15.0 14.5 15.0 15.0 14.8 15.0
15.0 15.0 15.0 15.0 14.4 4.5 1.2 4.9 1.0 4.1 6.9 0.0 0.0 15.0 15.0 15.0 15.0 15.0 15.0 15.0 15.0 15.0 15.0 13.3 15.0 15.0 15.0 15.0 15.0 15.0 15.0 0.0 0.1 0.4 0.2 7.4 0.1 15.0 15.0 15.0 12.1 13.3 15.0 15.0
14.7 15.0 15.0 15.0 12.9 15.0 0.8 0.8 0.0 0.1 0.9 8.2 15.0 15.0 15.0 15.0 15.0 15.0 15.0 15.0 15.0 15.0 15.0 15.0 15.0 15.0 15.0 15.0 15.0 15.0 11.3 0.0 0.2 1.3 0.5 0.0 0.0 12.6 15.0 15.0 0.2 12.2 15.0 15.0
14.2 15.0 15.0 15.0 10.4 15.0 0.4 14.7 1.1 7.7 0.0 1.0 15.0 15.0 15.0 15.0 15.0 15.0 15.0 11.4 15.0 2.2 0.0 15.0 5.0 15.0 15.0 15.0 15.0 15.0 0.7 0.0 0.0 0.4 8.6 0.0 0.0 0.1 8.7 1.4 11.0 14.0 15.0 15.0
15.0 15.0 15.0 15.0 9.1 7.1 14.6 3.1 14.9 15.0 15.0 15.0 15.0 15.0 15.0 15.0 15.0 15.0 15.0 15.0 15.0 15.0 0.1 15.0 15.0 15.0 15.0 15.0 15.0 15.0 6.4 0.0 0.0 0.0 0.0 0.0 0.0 0.1 0.2 0.1 15.0 15.0 15.0 15.0
15.0 15.0 15.0 15.0 7.7 5.6 5.7 14.0 10.5 15.0 15.0 15.0 15.0 15.0 15.0 15.0 15.0 15.0 15.0 15.0 15.0 15.0 15.0 15.0 15.0 15.0 15.0 15.0 15.0 0.2 0.0 0.0 0.0 0.9 0.2 0.0 0.0 5.8 15.0 15.0 15.0 15.0 15.0 15.0
15.0 15.0 15.0 15.0 11.4 6.1 9.1 5.3 0.4 4.8 4.0 15.0 15.0 15.0 15.0 15.0 15.0 15.0 15.0 15.0 14.9 15.0 15.0 15.0 15.0 15.0 15.0 15.0 15.0 15.0 0.1 0.0 0.0 0.2 0.0 0.0 11.0 15.0 15.0 15.0 15.0 15.0 15.0 15.0
15.0 15.0 15.0 15.0 15.0 9.4 14.6 4.8 0.2 0.1 15.0 15.0 15.0 15.0 15.0 15.0 15.0 15.0 15.0 15.0 15.0 15.0 14.3 3.7 15.0 15.0 15.0 15.0 15.0 15.0 15.0 0.0 0.0 0.0 0.1 7.5 15.0 15.0 15.0 15.0 15.0 15.0 15.0 15.0
15.0 15.0 15.0 15.0 15.0 15.0 15.0 12.8 2.5 0.1 14.0 15.0 15.0 15.0 15.0 15.0 15.0 13.3 15.0 15.0 15.0 15.0 10.7 3.7 10.0 15.0 15.0 15.0 15.0 15.0 15.0 15.0 0.0 4.8 0.7 15.0 15.0 15.0 15.0 15.0 0.1 15.0 15.0 15.0
15.0 15.0 15.0 15.0 15.0 15.0 15.0 10.0 6.4 0.1 14.7 15.0 15.0 15.0 15.0 15.0 15.0 15.0 15.0 15.0 15.0 15.0 12.1 0.2 3.3 0.3 15.0 15.0 15.0 15.0 5.6 14.6 0.5 15.0 15.0 15.0 15.0 15.0 15.0 15.0 15.0 15.0 15.0 15.0
15.0 15.0 15.0 15.0 15.0 15.0 14.2 4.7 4.1 0.1 14.0 15.0 15.0 15.0 12.3 15.0 15.0 15.0 15.0 11.9 5.7 0.1 0.1 0.0 0.1 0.1 15.0 15.0 15.0 15.0 15.0 15.0 15.0 15.0 15.0 15.0 15.0 15.0 15.0 15.0 15.0 15.0 15.0 15.0
15.0 15.0 15.0 15.0 15.0 15.0 12.8 15.0 13.9 13.7 0.1 15.0 15.0 15.0 15.0 15.0 15.0 15.0 15.0 14.0 14.3 14.9 0.6 3.2 14.5 15.0 15.0 15.0 15.0 15.0 15.0 15.0 15.0 15.0 15.0 15.0 15.0 15.0 15.0 15.0 15.0 15.0 15.0 15.0
15.0 15.0 15.0 15.0 15.0 15.0 10.5 14.6 15.0 12.9 9.8 15.0 14.1 15.0 15.0 15.0 15.0 15.0 14.3 7.3 15.0 14.8 4.0 2.2 15.0 15.0 15.0 15.0 15.0 15.0 15.0 15.0 15.0 15.0 15.0 15.0 15.0 15.0 15.0 15.0 15.0 15.0 15.0 15.0
15.0 15.0 15.0 15.0 15.0 15.0 15.0 15.0 15.0 4.6 0.1 15.0 15.0 15.0 15.0 15.0 15.0 15.0 15.0 15.0 15.0 2.0 0.6 0.2 14.4 15.0 15.0 15.0 15.0 15.0 15.0 15.0 15.0 15.0 15.0 15.0 15.0 15.0 15.0 15.0 15.0 15.0 15.0 15.0
15.0 15.0 15.0 15.0 15.0 15.0 15.0 15.0 15.0 15.0 0.0 0.5 4.8 15.0 15.0 15.0 15.0 15.0 15.0 15.0 14.1 11.5 0.1 0.3 0.1 15.0 15.0 15.0 15.0 15.0 15.0 15.0 15.0 15.0 15.0 15.0 15.0 15.0 15.0 15.0 15.0 15.0 15.0 15.0
15.0 15.0 15.0 15.0 15.0 15.0 15.0 4.9 0.8 15.0 4.3 0.1 0.9 15.0 0.9 1.1 15.0 15.0 15.0 15.0 9.3 10.2 0.9 4.7 15.0 15.0 15.0 15.0 15.0 15.0 15.0 15.0 15.0 15.0 15.0 15.0 15.0 15.0 15.0 15.0 15.0 15.0 15.0 15.0
15.0 15.0 15.0 15.0 15.0 15.0 15.0 3.7 1.3 14.5 15.0 0.1 0.0 0.1 15.0 15.0 15.0 12.9 0.3 8.2 2.5 7.6 9.9 0.3 14.3 15.0 15.0 15.0 15.0 15.0 15.0 15.0 15.0 15.0 15.0 15.0 15.0 15.0 15.0 15.0 15.0 15.0 15.0 15.0
15.0 15.0 15.0 15.0 15.0 15.0 15.0 15.0 15.0 15.0 1.4 0.6 0.0 0.0 0.2 13.2 1.2 0.1 14.5 2.8 3.6 0.2 8.4 9.0 8.1 15.0 15.0 8.0 15.0 15.0 15.0 15.0 15.0 15.0 15.0 15.0 15.0 15.0 15.0 15.0 15.0 15.0 15.0 15.0
15.0 15.0 15.0 15.0 15.0 15.0 15.0 15.0 15.0 15.0 1.1 0.1 0.0 0.0 0.4 12.5 11.6 15.0 3.5 8.4 0.2 10.1 6.2 15.0 6.4 14.3 3.2 15.0 15.0 15.0 15.0 15.0 15.0 15.0 15.0 15.0 15.0 15.0 15.0 15.0 15.0 15.0 15.0 15.0
15.0 15.0 4.0 0.1 14.7 15.0 2.7 0.1 0.1 0.1 0.1 0.2 0.0 14.9 0.7 14.9 14.7 0.1 11.7 14.8 0.1 0.0 2.5 15.0 0.1 0.7 15.0 15.0 15.0 15.0 15.0 15.0 15.0 15.0 15.0 15.0 15.0 15.0 15.0 15.0 15.0 15.0 15.0 15.0
13.8 1.7 0.0 0.4 15.0 0.4 0.1 0.1 0.1 0.1 0.1 0.1 1.8 15.0 6.2 15.0 4.9 6.7 15.0 3.1 0.1 0.4 15.0 6.5 7.8 5.7 15.0 15.0 15.0 15.0 15.0 15.0 15.0 15.0 15.0 15.0 15.0 15.0 15.0 15.0 15.0 15.0 15.0 15.0
7.2 4.2 15.0 6.0 0.0 0.0 0.0 0.0 0.1 0.1 0.5 0.2 0.1 0.1 15.0 15.0 15.0 15.0 1.3 0.3 0.7 13.9 14.2 5.3 4.5 15.0 15.0 15.0 15.0 15.0 15.0 15.0 15.0 15.0 15.0 15.0 15.0 15.0 15.0 15.0 15.0 15.0 15.0 15.0
15.0 1.2 0.0 0.0 0.0 0.0 0.0 0.0 0.0 0.1 0.0 0.0 0.1 0.2 12.7 15.0 15.0 15.0 15.0 15.0 15.0 15.0 2.3 6.3 12.7 15.0 15.0 15.0 15.0 15.0 15.0 15.0 15.0 15.0 15.0 15.0 15.0 15.0 15.0 15.0 15.0 15.0 15.0 15.0
15.0 1.6 10.8 0.2 0.1 0.0 0.0 0.1 0.0 9.2 0.0 0.0 15.0 15.0 15.0 15.0 15.0 15.0 13.6 15.0 15.0 0.1 0.1 15.0 15.0 15.0 15.0 15.0 15.0 15.0 15.0 15.0 15.0 15.0 15.0 15.0 15.0 15.0 15.0 15.0 15.0 15.0 15.0 15.0
5.5 2.8 6.9 0.2 0.0 0.0 0.0 0.1 0.0 8.9 0.1 15.0 15.0 15.0 15.0 15.0 15.0 10.2 0.5 0.1 0.4 6.7 13.6 15.0 15.0 15.0 15.0 15.0 15.0 15.0 15.0 15.0 15.0 15.0 15.0 15.0 15.0 15.0 15.0 15.0 15.0 15.0 15.0 15.0
0.1 1.6 1.1 1.0 0.4 0.6 10.3 0.1 0.0 4.0 14.7 15.0 15.0 15.0 15.0 15.0 15.0 0.2 0.1 6.6 0.2 15.0 15.0 15.0 10.7 15.0 15.0 15.0 15.0 15.0 15.0 15.0 15.0 15.0 15.0 15.0 15.0 15.0 15.0 15.0 15.0 15.0 15.0 15.0
14.7 3.1 0.1 1.2 1.0 0.1 0.1 0.7 0.6 15.0 2.9 1.0 15.0 15.0 15.0 15.0 0.7 1.3 15.0 15.0 15.0 15.0 14.9 0.9 4.7 15.0 15.0 15.0 15.0 15.0 15.0 15.0 15.0 15.0 15.0 15.0 15.0 15.0 15.0 15.0 15.0 15.0 15.0 15.0